TimePDT,TemperatureF,Dew PointF,Humidity,Sea Level PressureIn,VisibilityMPH,Wind Direction,Wind SpeedMPH,Gust SpeedMPH,PrecipitationIn,Events,Conditions,WindDirDegrees,DateUTC
12:55 AM,63.0,57.0,81,29.99,10.0,West,3.5,-,N/A,,Overcast,270,2012-10-10 07:55:00
1:55 AM,63.0,57.0,81,30.00,10.0,Calm,Calm,-,N/A,,Mostly Cloudy,0,2012-10-10 08:55:00
2:05 AM,62.6,55.4,77,29.98,10.0,Calm,Calm,-,N/A,,Scattered Clouds,0,2012-10-10 09:05:00
2:55 AM,60.1,55.9,86,29.99,10.0,Calm,Calm,-,N/A,,Clear,0,2012-10-10 09:55:00
3:55 AM,57.9,54.0,87,29.98,10.0,Calm,Calm,-,N/A,,Clear,0,2012-10-10 10:55:00
4:55 AM,57.9,54.0,87,29.98,10.0,Calm,Calm,-,N/A,,Clear,0,2012-10-10 11:55:00
5:55 AM,57.0,53.1,87,29.99,10.0,ENE,4.6,-,N/A,,Clear,70,2012-10-10 12:55:00
6:55 AM,55.9,53.1,90,29.99,10.0,ENE,4.6,-,N/A,,Clear,60,2012-10-10 13:55:00
7:55 AM,60.1,54.0,80,30.00,10.0,ENE,6.9,-,N/A,,Scattered Clouds,70,2012-10-10 14:55:00
8:55 AM,63.0,54.0,72,30.01,10.0,NE,4.6,-,N/A,,Scattered Clouds,50,2012-10-10 15:55:00
9:55 AM,66.0,55.0,68,30.01,10.0,Calm,Calm,-,N/A,,Clear,0,2012-10-10 16:55:00
10:55 AM,66.9,57.0,70,30.01,10.0,WSW,6.9,-,N/A,,Overcast,250,2012-10-10 17:55:00
11:55 AM,66.9,57.9,73,30.00,10.0,SSW,11.5,-,N/A,,Mostly Cloudy,210,2012-10-10 18:55:00
12:55 PM,69.1,55.9,63,29.99,10.0,SW,9.2,-,N/A,,Scattered Clouds,230,2012-10-10 19:55:00
1:55 PM,71.1,54.0,55,29.96,10.0,SW,9.2,-,N/A,,Scattered Clouds,220,2012-10-10 20:55:00
2:55 PM,70.0,54.0,57,29.94,10.0,SSW,9.2,-,N/A,,Partly Cloudy,210,2012-10-10 21:55:00
3:55 PM,69.1,53.1,57,29.94,10.0,SW,9.2,-,N/A,,Clear,220,2012-10-10 22:55:00
4:55 PM,68.0,53.1,59,29.93,10.0,SSW,9.2,-,N/A,,Scattered Clouds,210,2012-10-10 23:55:00
5:55 PM,66.0,55.9,70,29.93,10.0,SSW,9.2,-,N/A,,Partly Cloudy,210,2012-10-11 00:55:00
6:55 PM,64.0,55.0,73,29.94,10.0,West,5.8,-,N/A,,Clear,260,2012-10-11 01:55:00
7:55 PM,63.0,55.9,78,29.95,10.0,West,6.9,-,N/A,,Scattered Clouds,270,2012-10-11 02:55:00
8:55 PM,62.1,55.0,78,29.94,10.0,West,4.6,-,N/A,,Clear,270,2012-10-11 03:55:00
9:55 PM,61.0,55.0,81,29.95,10.0,Calm,Calm,-,N/A,,Clear,0,2012-10-11 04:55:00
10:23 PM,60.8,55.4,82,29.93,10.0,Calm,Calm,-,N/A,,Overcast,0,2012-10-11 05:23:00
10:50 PM,60.8,55.4,82,29.93,10.0,SSW,3.5,-,N/A,,Mostly Cloudy,200,2012-10-11 05:50:00
10:55 PM,61.0,55.0,81,29.96,10.0,Calm,Calm,-,N/A,,Mostly Cloudy,0,2012-10-11 05:55:00
11:55 PM,59.0,54.0,83,29.95,10.0,Calm,Calm,-,N/A,,Clear,0,2012-10-11 06:55:00